{"data":{"norad_id":43585,"intl_designator":"2018-063A","name":"GAOFEN-11 01","alt_names":[],"object_type":"PAYLOAD","status":"ACTIVE","operator":null,"country":"PRC","launch_date":"2018-07-31","launch_site_code":"TAISC","launch_vehicle":null,"mission":null,"orbit_class":"UNKNOWN","rcs_meters":null,"size_class":null,"mass_kg":null,"dimensions":null,"purposes":["earth_obs"],"wikipedia_slug":null,"has_3d_model":false,"image_url":null,"decayed_at":null,"tle_current":{"epoch":"2026-05-25T04:46:30.260640Z","epoch_age_seconds":67930,"freshness":"FRESH","line1":"1 43585U 18063A   26145.19896135  .00016116  00000+0  24567-3 0  9994","line2":"2 43585  97.1306 212.1536 0005311  71.3778 288.8052 15.54537751436779","mean_motion":15.54537751,"eccentricity":0.0005311,"inclination_deg":97.1306,"raan_deg":212.1536,"arg_perigee_deg":71.3778,"mean_anomaly_deg":288.8052,"bstar":0.00024567,"rev_number":43677,"period_min":92.632037985162,"perigee_km":399.89493747715,"apogee_km":407.09838875411,"semimajor_km":6781.6336631156,"source":"CELESTRAK","updated_at":"2026-05-25T13:38:12.830679Z"}}}